,,,PA_Meas_PMT16A,,PR_Meas_QMR101_102,,RH_Meas_QMH101,,SR_Meas_QMS101,,TA_Meas_QMH101,,GenWind,,GenWind,
date,time,status,PA,status,PR,status,RH,status,SR,status,TA,status,DirAvg,status,SpdAvg,
2009-03-30, 00:00:04,VALID,1000.74,VALID,0,VALID,93.4934,VALID,0,VALID,23.4884,VALID,90,VALID,0.479688,
2009-03-30, 00:01:04,VALID,1000.76,VALID,0,VALID,93.44,VALID,0,VALID,23.5061,VALID,95,VALID,0.245703,
2009-03-30, 00:02:04,VALID,1000.75,VALID,0,VALID,93.3255,VALID,0,VALID,23.5469,VALID,95,VALID,0.307031,
2009-03-30, 00:03:04,VALID,1000.72,VALID,0,VALID,93.1577,VALID,0,VALID,23.5469,VALID,95,VALID,0.242188,
2009-03-30, 00:04:04,VALID,1000.7,VALID,0,VALID,93.1577,VALID,0,VALID,23.5451,VALID,95,VALID,0.376563,
2009-03-30, 00:05:04,VALID,1000.71,VALID,0,VALID,93.0356,VALID,0,VALID,23.5664,VALID,95,VALID,0.482812,
2009-03-30, 00:06:04,VALID,1000.69,VALID,0,VALID,93.1119,VALID,0,VALID,23.5664,VALID,95,VALID,0.353516,
2009-03-30, 00:07:04,VALID,1000.74,VALID,0,VALID,93.0737,VALID,0,VALID,23.5646,VALID,95,VALID,0.267188,
2009-03-30, 00:08:04,VALID,1000.72,VALID,0,VALID,92.7762,VALID,0,VALID,23.5859,VALID,95,VALID,0.2375,
2009-03-30, 00:09:04,VALID,1000.7,VALID,0,VALID,92.7609,VALID,0,VALID,23.5859,VALID,95,VALID,0.365625,
2009-03-30, 00:10:04,VALID,1000.71,VALID,0,VALID,92.6694,VALID,0,VALID,23.5859,VALID,124,VALID,0.661328,
2009-03-30, 00:11:04,VALID,1000.66,VALID,0,VALID,92.5549,VALID,0,VALID,23.5859,VALID,124,VALID,0.652734,
2009-03-30, 00:12:04,VALID,1000.63,VALID,0,VALID,92.4405,VALID,0,VALID,23.5664,VALID,124,VALID,0.616797,
2009-03-30, 00:13:04,VALID,1000.63,VALID,0,VALID,92.4328,VALID,0,VALID,23.5664,VALID,124,VALID,0.520703,
2009-03-30, 00:14:04,VALID,1000.61,VALID,0,VALID,92.4634,VALID,0,VALID,23.5451,VALID,111,VALID,0.51875,
2009-03-30, 00:15:04,VALID,1000.61,VALID,0,VALID,92.5626,VALID,0,VALID,23.5664,VALID,111,VALID,0.290234,
2009-03-30, 00:16:04,VALID,1000.59,VALID,0,VALID,92.616,VALID,0,VALID,23.5451,VALID,111,VALID,0.300781,
2009-03-30, 00:17:04,VALID,1000.59,VALID,0,VALID,92.6465,VALID,0,VALID,23.5469,VALID,111,VALID,0.245703,
2009-03-30, 00:18:04,VALID,1000.56,VALID,0,VALID,92.5931,VALID,0,VALID,23.5451,VALID,111,VALID,0.128125,
2009-03-30, 00:19:04,VALID,1000.55,VALID,0,VALID,92.6236,VALID,0,VALID,23.5469,VALID,111,VALID,0.173438,
2009-03-30, 00:20:04,VALID,1000.56,VALID,0,VALID,92.6388,VALID,0,VALID,23.5256,VALID,111,VALID,0.155078,
2009-03-30, 00:21:04,VALID,1000.56,VALID,0,VALID,92.6617,VALID,0,VALID,23.5256,VALID,111,VALID,0.120703,
2009-03-30, 00:22:04,VALID,1000.53,VALID,0,VALID,92.6923,VALID,0,VALID,23.5256,VALID,111,VALID,0.323047,
2009-03-30, 00:23:04,VALID,1000.53,VALID,0,VALID,92.5778,VALID,0,VALID,23.5061,VALID,109,VALID,0.498828,
2009-03-30, 00:24:04,VALID,1000.54,VALID,0,VALID,92.5091,VALID,0,VALID,23.5274,VALID,108,VALID,0.469531,
2009-03-30, 00:25:04,VALID,1000.49,VALID,0,VALID,92.4405,VALID,0,VALID,23.4884,VALID,92,VALID,0.514844,
2009-03-30, 00:26:04,VALID,1000.47,VALID,0,VALID,92.6388,VALID,0,VALID,23.4866,VALID,92,VALID,0.534766,
2009-03-30, 00:27:04,VALID,1000.47,VALID,0,VALID,92.4863,VALID,0,VALID,23.5079,VALID,83,VALID,0.725781,
2009-03-30, 00:28:04,VALID,1000.46,VALID,0,VALID,92.265,VALID,0,VALID,23.5079,VALID,81,VALID,0.927734,
2009-03-30, 00:29:04,VALID,1000.42,VALID,0,VALID,91.8911,VALID,0,VALID,23.4671,VALID,83,VALID,0.883594,
2009-03-30, 00:30:04,VALID,1000.4,VALID,0,VALID,92.2268,VALID,0,VALID,23.4671,VALID,100,VALID,0.884375,
2009-03-30, 00:31:04,VALID,1000.4,VALID,0,VALID,92.0132,VALID,0,VALID,23.4475,VALID,101,VALID,0.544922,
2009-03-30, 00:32:04,VALID,1000.41,VALID,0,VALID,92.0971,VALID,0,VALID,23.428,VALID,101,VALID,0.467578,
2009-03-30, 00:33:04,VALID,1000.43,VALID,0,VALID,92.2268,VALID,0,VALID,23.4298,VALID,101,VALID,0.329688,
2009-03-30, 00:34:04,VALID,1000.44,VALID,0,VALID,92.1353,VALID,0,VALID,23.4493,VALID,101,VALID,0.00703125,
2009-03-30, 00:35:04,VALID,1000.48,VALID,0,VALID,92.1506,VALID,0,VALID,23.4085,VALID,101,VALID,0,
2009-03-30, 00:36:04,VALID,1000.49,VALID,0,VALID,92.3108,VALID,0,VALID,23.389,VALID,101,VALID,0,
2009-03-30, 00:37:04,VALID,1000.47,VALID,0,VALID,92.3947,VALID,0,VALID,23.4298,VALID,101,VALID,0.124219,
2009-03-30, 00:38:04,VALID,1000.48,VALID,0,VALID,92.5854,VALID,0,VALID,23.4085,VALID,118,VALID,0.448438,
2009-03-30, 00:39:04,VALID,1000.44,VALID,0,VALID,92.5549,VALID,0,VALID,23.428,VALID,143,VALID,0.792188,
2009-03-30, 00:40:04,VALID,1000.41,VALID,0,VALID,92.4481,VALID,0,VALID,23.4688,VALID,143,VALID,0.844141,
2009-03-30, 00:41:04,VALID,1000.39,VALID,0,VALID,92.3337,VALID,0,VALID,23.4866,VALID,143,VALID,0.825781,
2009-03-30, 00:42:04,VALID,1000.41,VALID,0,VALID,92.1582,VALID,0,VALID,23.5469,VALID,143,VALID,0.745313,
2009-03-30, 00:43:04,VALID,1000.38,VALID,0,VALID,91.9598,VALID,0,VALID,23.5451,VALID,143,VALID,0.658594,
2009-03-30, 00:44:04,VALID,1000.37,VALID,0,VALID,91.853,VALID,0,VALID,23.5664,VALID,143,VALID,0.564062,
2009-03-30, 00:45:04,VALID,1000.37,VALID,0,VALID,91.7843,VALID,0,VALID,23.5664,VALID,144,VALID,0.709375,
2009-03-30, 00:46:04,VALID,1000.35,VALID,0,VALID,91.5936,VALID,0,VALID,23.5859,VALID,150,VALID,0.853125,
2009-03-30, 00:47:04,VALID,1000.28,VALID,0,VALID,91.441,VALID,0,VALID,23.5859,VALID,137,VALID,0.76875,
2009-03-30, 00:48:04,VALID,1000.26,VALID,0,VALID,91.1587,VALID,0,VALID,23.5664,VALID,126,VALID,0.765234,
2009-03-30, 00:49:04,VALID,1000.21,VALID,0,VALID,91.2731,VALID,0,VALID,23.5859,VALID,126,VALID,0.491406,
2009-03-30, 00:50:04,VALID,1000.19,VALID,0,VALID,91.174,VALID,0,VALID,23.5646,VALID,126,VALID,0.580078,
2009-03-30, 00:51:04,VALID,1000.15,VALID,0,VALID,90.9374,VALID,0,VALID,23.5859,VALID,126,VALID,0.695313,
2009-03-30, 00:52:04,VALID,1000.14,VALID,0,VALID,91.0137,VALID,0,VALID,23.5451,VALID,122,VALID,0.652344,
2009-03-30, 00:53:04,VALID,1000.1,VALID,0,VALID,90.7849,VALID,0,VALID,23.5469,VALID,115,VALID,0.864453,
2009-03-30, 00:54:04,VALID,1000.07,VALID,0,VALID,90.7085,VALID,0,VALID,23.5274,VALID,116,VALID,0.386719,
2009-03-30, 00:55:04,VALID,1000.1,VALID,0,VALID,90.7467,VALID,0,VALID,23.5079,VALID,117,VALID,0.544922,
2009-03-30, 00:56:04,VALID,1000.12,VALID,0,VALID,90.8993,VALID,0,VALID,23.4688,VALID,117,VALID,0.336719,
2009-03-30, 00:57:04,VALID,1000.12,VALID,0,VALID,90.9527,VALID,0,VALID,23.428,VALID,117,VALID,0.253906,
2009-03-30, 00:58:04,VALID,1000.12,VALID,0,VALID,91.3494,VALID,0,VALID,23.428,VALID,117,VALID,0.436328,
2009-03-30, 00:59:04,VALID,1000.13,VALID,0,VALID,91.4334,VALID,0,VALID,23.4103,VALID,120,VALID,0.624609,
2009-03-30, 01:00:04,VALID,1000.12,VALID,0,VALID,91.647,VALID,0,VALID,23.3908,VALID,131,VALID,0.509375,
2009-03-30, 01:01:04,VALID,1000.1,VALID,0,VALID,91.7996,VALID,0,VALID,23.3518,VALID,131,VALID,0.653906,
2009-03-30, 01:02:04,VALID,1000.11,VALID,0,VALID,92.0285,VALID,0,VALID,23.311,VALID,132,VALID,0.635156,
2009-03-30, 01:03:04,VALID,1000.1,VALID,0,VALID,92.0895,VALID,0,VALID,23.3323,VALID,132,VALID,0.536719,
2009-03-30, 01:04:04,VALID,1000.1,VALID,0,VALID,92.1124,VALID,0,VALID,23.2915,VALID,112,VALID,0.475781,
2009-03-30, 01:05:04,VALID,1000.08,VALID,0,VALID,92.1429,VALID,0,VALID,23.2932,VALID,107,VALID,0.904688,
2009-03-30, 01:06:04,VALID,1000.04,VALID,0,VALID,91.998,VALID,0,VALID,23.2737,VALID,112,VALID,0.497266,
2009-03-30, 01:07:04,VALID,1000.03,VALID,0,VALID,92.1429,VALID,0,VALID,23.2737,VALID,112,VALID,0.546875,
2009-03-30, 01:08:04,VALID,999.978,VALID,0,VALID,92.0361,VALID,0,VALID,23.2524,VALID,112,VALID,0.475781,
2009-03-30, 01:09:04,VALID,999.975,VALID,0,VALID,92.0285,VALID,0,VALID,23.2737,VALID,106,VALID,0.726953,
2009-03-30, 01:10:04,VALID,999.95,VALID,0,VALID,92.059,VALID,0,VALID,23.2932,VALID,96,VALID,1.1043,
2009-03-30, 01:11:04,VALID,999.909,VALID,0,VALID,91.8225,VALID,0,VALID,23.2737,VALID,95,VALID,0.75,
2009-03-30, 01:12:04,VALID,999.931,VALID,0,VALID,91.8454,VALID,0,VALID,23.2932,VALID,93,VALID,0.855078,
2009-03-30, 01:13:04,VALID,999.92,VALID,0,VALID,91.7233,VALID,0,VALID,23.2915,VALID,99,VALID,0.719141,
2009-03-30, 01:14:04,VALID,999.892,VALID,0,VALID,91.7233,VALID,0,VALID,23.311,VALID,98,VALID,0.610156,
2009-03-30, 01:15:04,VALID,999.904,VALID,0,VALID,91.5631,VALID,0,VALID,23.311,VALID,98,VALID,0.254297,
2009-03-30, 01:16:04,VALID,999.88,VALID,0,VALID,91.6546,VALID,0,VALID,23.311,VALID,99,VALID,0.339063,
2009-03-30, 01:17:04,VALID,999.889,VALID,0,VALID,91.6165,VALID,0,VALID,23.3323,VALID,99,VALID,0.310937,
2009-03-30, 01:18:04,VALID,999.859,VALID,0,VALID,91.6623,VALID,0,VALID,23.2915,VALID,106,VALID,0.398047,
2009-03-30, 01:19:04,VALID,999.849,VALID,0,VALID,91.6775,VALID,0,VALID,23.2915,VALID,106,VALID,0.0996094,
2009-03-30, 01:20:04,VALID,999.857,VALID,0,VALID,91.7233,VALID,0,VALID,23.2915,VALID,106,VALID,0.323047,
2009-03-30, 01:21:04,VALID,999.829,VALID,0,VALID,91.7309,VALID,0,VALID,23.2932,VALID,106,VALID,0.289453,
2009-03-30, 01:22:04,VALID,999.819,VALID,0,VALID,91.7538,VALID,0,VALID,23.2329,VALID,106,VALID,0.196484,
2009-03-30, 01:23:04,VALID,999.805,VALID,0,VALID,91.914,VALID,0,VALID,23.2329,VALID,106,VALID,0.416797,
2009-03-30, 01:24:04,VALID,999.818,VALID,0,VALID,91.9293,VALID,0,VALID,23.2542,VALID,106,VALID,0.441406,
2009-03-30, 01:25:04,VALID,999.808,VALID,0,VALID,92.1124,VALID,0,VALID,23.2542,VALID,110,VALID,0.410547,
2009-03-30, 01:26:04,VALID,999.826,VALID,0,VALID,92.0895,VALID,0,VALID,23.2524,VALID,125,VALID,0.313281,
2009-03-30, 01:27:04,VALID,999.856,VALID,0,VALID,92.1277,VALID,0,VALID,23.2719,VALID,145,VALID,0.635938,
2009-03-30, 01:28:04,VALID,999.817,VALID,0,VALID,92.0895,VALID,0,VALID,23.2915,VALID,151,VALID,0.808594,
2009-03-30, 01:29:04,VALID,999.819,VALID,0,VALID,92.0361,VALID,0,VALID,23.311,VALID,138,VALID,0.866016,
2009-03-30, 01:30:04,VALID,999.794,VALID,0,VALID,91.9217,VALID,0,VALID,23.311,VALID,138,VALID,0.774609,
2009-03-30, 01:31:04,VALID,999.798,VALID,0,VALID,91.9369,VALID,0,VALID,23.3305,VALID,132,VALID,0.994922,
2009-03-30, 01:32:04,VALID,999.763,VALID,0,VALID,91.8606,VALID,0,VALID,23.3305,VALID,133,VALID,0.903906,
2009-03-30, 01:33:04,VALID,999.715,VALID,0,VALID,91.9064,VALID,0,VALID,23.3305,VALID,117,VALID,0.742969,
2009-03-30, 01:34:04,VALID,999.679,VALID,0,VALID,91.9903,VALID,0,VALID,23.3305,VALID,102,VALID,0.725391,
2009-03-30, 01:35:04,VALID,999.708,VALID,0,VALID,91.7462,VALID,0,VALID,23.3305,VALID,100,VALID,0.813281,
2009-03-30, 01:36:04,VALID,999.695,VALID,0,VALID,91.7691,VALID,0,VALID,23.3518,VALID,97,VALID,0.841406,
2009-03-30, 01:37:04,VALID,999.691,VALID,0,VALID,91.792,VALID,0,VALID,23.3518,VALID,97,VALID,0.753125,
2009-03-30, 01:38:04,VALID,999.674,VALID,0,VALID,91.6775,VALID,0,VALID,23.3305,VALID,101,VALID,0.713672,
2009-03-30, 01:39:04,VALID,999.706,VALID,0,VALID,91.7538,VALID,0,VALID,23.3323,VALID,121,VALID,0.5375,
2009-03-30, 01:40:04,VALID,999.707,VALID,0,VALID,91.7462,VALID,0,VALID,23.311,VALID,126,VALID,0.485938,
2009-03-30, 01:41:04,VALID,999.726,VALID,0,VALID,91.6394,VALID,0,VALID,23.3127,VALID,140,VALID,0.454297,
2009-03-30, 01:42:04,VALID,999.702,VALID,0,VALID,91.7233,VALID,0,VALID,23.2932,VALID,140,VALID,0.492188,
2009-03-30, 01:43:04,VALID,999.692,VALID,0,VALID,91.8301,VALID,0,VALID,23.2542,VALID,142,VALID,0.417188,
2009-03-30, 01:44:04,VALID,999.689,VALID,0,VALID,91.9827,VALID,0,VALID,23.2542,VALID,142,VALID,0.36875,
2009-03-30, 01:45:04,VALID,999.672,VALID,0,VALID,92.1277,VALID,0,VALID,23.2524,VALID,142,VALID,0.380469,
2009-03-30, 01:46:04,VALID,999.649,VALID,0,VALID,92.2192,VALID,0,VALID,23.2542,VALID,139,VALID,0.535547,
2009-03-30, 01:47:04,VALID,999.637,VALID,0,VALID,92.2116,VALID,0,VALID,23.2329,VALID,119,VALID,0.860547,
2009-03-30, 01:48:04,VALID,999.647,VALID,0,VALID,92.1887,VALID,0,VALID,23.2134,VALID,108,VALID,0.677734,
2009-03-30, 01:49:04,VALID,999.641,VALID,0,VALID,92.12,VALID,0,VALID,23.2347,VALID,107,VALID,0.735547,
2009-03-30, 01:50:04,VALID,999.641,VALID,0,VALID,92.1734,VALID,0,VALID,23.2134,VALID,104,VALID,0.741797,
2009-03-30, 01:51:04,VALID,999.601,VALID,0,VALID,92.1429,VALID,0,VALID,23.2347,VALID,118,VALID,0.565234,
2009-03-30, 01:52:04,VALID,999.581,VALID,0,VALID,92.1963,VALID,0,VALID,23.2542,VALID,123,VALID,0.764453,
2009-03-30, 01:53:04,VALID,999.558,VALID,0,VALID,92.1124,VALID,0,VALID,23.2542,VALID,124,VALID,0.541406,
2009-03-30, 01:54:04,VALID,999.567,VALID,0,VALID,92.0971,VALID,0,VALID,23.2542,VALID,124,VALID,0.68125,
2009-03-30, 01:55:04,VALID,999.541,VALID,0,VALID,92.265,VALID,0,VALID,23.2542,VALID,124,VALID,0.776563,
2009-03-30, 01:56:04,VALID,999.509,VALID,0,VALID,92.1353,VALID,0,VALID,23.2524,VALID,123,VALID,0.958984,
2009-03-30, 01:57:04,VALID,999.544,VALID,0,VALID,91.9751,VALID,0,VALID,23.2542,VALID,123,VALID,0.789453,
2009-03-30, 01:58:04,VALID,999.52,VALID,0,VALID,91.8377,VALID,0,VALID,23.2329,VALID,120,VALID,0.682813,
2009-03-30, 01:59:04,VALID,999.547,VALID,0,VALID,91.8454,VALID,0,VALID,23.2134,VALID,119,VALID,0.485547,
2009-03-30, 02:00:04,VALID,999.571,VALID,0,VALID,91.8377,VALID,0,VALID,23.2347,VALID,119,VALID,0.561328,
2009-03-30, 02:01:04,VALID,999.559,VALID,0,VALID,91.8301,VALID,0,VALID,23.2152,VALID,123,VALID,0.903906,
2009-03-30, 02:02:04,VALID,999.544,VALID,0,VALID,91.7767,VALID,0,VALID,23.2134,VALID,123,VALID,0.814453,
2009-03-30, 02:03:04,VALID,999.525,VALID,0,VALID,91.8759,VALID,0,VALID,23.2347,VALID,123,VALID,0.843359,
2009-03-30, 02:04:04,VALID,999.553,VALID,0,VALID,91.8683,VALID,0,VALID,23.2542,VALID,123,VALID,0.595312,
2009-03-30, 02:05:04,VALID,999.526,VALID,0,VALID,91.7614,VALID,0,VALID,23.2737,VALID,123,VALID,0.711328,
2009-03-30, 02:06:04,VALID,999.529,VALID,0,VALID,91.7004,VALID,0,VALID,23.2932,VALID,113,VALID,0.728516,
2009-03-30, 02:07:04,VALID,999.535,VALID,0,VALID,91.4563,VALID,0,VALID,23.3127,VALID,106,VALID,0.833203,
2009-03-30, 02:08:04,VALID,999.518,VALID,0,VALID,91.3342,VALID,0,VALID,23.311,VALID,105,VALID,0.619141,
2009-03-30, 02:09:04,VALID,999.548,VALID,0,VALID,91.3266,VALID,0,VALID,23.3323,VALID,105,VALID,0.442969,
2009-03-30, 02:10:04,VALID,999.567,VALID,0,VALID,91.2579,VALID,0,VALID,23.3323,VALID,105,VALID,0.216797,
2009-03-30, 02:11:04,VALID,999.543,VALID,0,VALID,91.1663,VALID,0,VALID,23.3127,VALID,105,VALID,0.0167969,
2009-03-30, 02:12:04,VALID,999.56,VALID,0,VALID,91.1129,VALID,0,VALID,23.2932,VALID,105,VALID,0.06875,
2009-03-30, 02:13:04,VALID,999.552,VALID,0,VALID,91.235,VALID,0,VALID,23.2737,VALID,105,VALID,0.1875,
2009-03-30, 02:14:04,VALID,999.521,VALID,0,VALID,91.2808,VALID,0,VALID,23.2737,VALID,105,VALID,0.267188,
2009-03-30, 02:15:04,VALID,999.496,VALID,0,VALID,91.3494,VALID,0,VALID,23.2542,VALID,105,VALID,0.369141,
2009-03-30, 02:16:04,VALID,999.489,VALID,0,VALID,91.2808,VALID,0,VALID,23.2737,VALID,105,VALID,0.395703,
2009-03-30, 02:17:04,VALID,999.464,VALID,0,VALID,91.1968,VALID,0,VALID,23.2542,VALID,105,VALID,0.579297,
2009-03-30, 02:18:04,VALID,999.436,VALID,0,VALID,91.1892,VALID,0,VALID,23.2347,VALID,113,VALID,0.579297,
2009-03-30, 02:19:04,VALID,999.417,VALID,0,VALID,91.1511,VALID,0,VALID,23.2347,VALID,115,VALID,0.824219,
2009-03-30, 02:20:04,VALID,999.411,VALID,0,VALID,91.0519,VALID,0,VALID,23.2542,VALID,116,VALID,0.866406,
2009-03-30, 02:21:04,VALID,999.396,VALID,0,VALID,91.0748,VALID,0,VALID,23.2347,VALID,116,VALID,0.880469,
2009-03-30, 02:22:04,VALID,999.395,VALID,0,VALID,91.174,VALID,0,VALID,23.1957,VALID,117,VALID,0.841406,
2009-03-30, 02:23:04,VALID,999.38,VALID,0,VALID,91.1968,VALID,0,VALID,23.2152,VALID,127,VALID,0.762891,
2009-03-30, 02:24:04,VALID,999.365,VALID,0,VALID,91.2808,VALID,0,VALID,23.2152,VALID,128,VALID,0.717578,
2009-03-30, 02:25:04,VALID,999.399,VALID,0,VALID,91.3037,VALID,0,VALID,23.1957,VALID,133,VALID,0.655469,
2009-03-30, 02:26:04,VALID,999.371,VALID,0,VALID,91.441,VALID,0,VALID,23.1957,VALID,137,VALID,0.620313,
2009-03-30, 02:27:04,VALID,999.39,VALID,0,VALID,91.5936,VALID,0,VALID,23.2152,VALID,137,VALID,0.551172,
2009-03-30, 02:28:04,VALID,999.375,VALID,0,VALID,91.586,VALID,0,VALID,23.1957,VALID,137,VALID,0.471875,
2009-03-30, 02:29:04,VALID,999.359,VALID,0,VALID,91.6623,VALID,0,VALID,23.1744,VALID,137,VALID,0.380859,
2009-03-30, 02:30:04,VALID,999.377,VALID,0,VALID,91.7691,VALID,0,VALID,23.1957,VALID,137,VALID,0.222656,
2009-03-30, 02:31:04,VALID,999.335,VALID,0,VALID,91.7004,VALID,0,VALID,23.1549,VALID,137,VALID,0.246094,
2009-03-30, 02:32:04,VALID,999.317,VALID,0,VALID,91.7691,VALID,0,VALID,23.1566,VALID,137,VALID,0.292188,
2009-03-30, 02:33:04,VALID,999.342,VALID,0,VALID,91.8225,VALID,0,VALID,23.1371,VALID,137,VALID,0.142188,
2009-03-30, 02:34:04,VALID,999.315,VALID,0,VALID,91.9445,VALID,0,VALID,23.1176,VALID,137,VALID,0.268359,
2009-03-30, 02:35:04,VALID,999.315,VALID,0,VALID,91.9369,VALID,0,VALID,23.0786,VALID,129,VALID,0.530078,
2009-03-30, 02:36:04,VALID,999.349,VALID,0,VALID,91.7614,VALID,0,VALID,23.0786,VALID,125,VALID,0.340234,
2009-03-30, 02:37:04,VALID,999.327,VALID,0,VALID,91.8988,VALID,0,VALID,23.0183,VALID,125,VALID,0.395703,
2009-03-30, 02:38:04,VALID,999.324,VALID,0,VALID,92.0514,VALID,0,VALID,22.9988,VALID,125,VALID,0.378516,
2009-03-30, 02:39:04,VALID,999.332,VALID,0,VALID,92.2268,VALID,0,VALID,23.0201,VALID,125,VALID,0.428516,
2009-03-30, 02:40:04,VALID,999.334,VALID,0,VALID,92.2803,VALID,0,VALID,23.0006,VALID,125,VALID,0.317578,
2009-03-30, 02:41:04,VALID,999.352,VALID,0,VALID,92.2574,VALID,0,VALID,22.9793,VALID,125,VALID,0.323047,
2009-03-30, 02:42:04,VALID,999.373,VALID,0,VALID,92.2421,VALID,0,VALID,22.9403,VALID,125,VALID,0.448047,
2009-03-30, 02:43:04,VALID,999.4,VALID,0,VALID,92.4481,VALID,0,VALID,22.9403,VALID,125,VALID,0.386328,
2009-03-30, 02:44:04,VALID,999.379,VALID,0,VALID,92.2803,VALID,0,VALID,22.9615,VALID,125,VALID,0.197266,
2009-03-30, 02:45:04,VALID,999.406,VALID,0,VALID,92.1048,VALID,0,VALID,22.903,VALID,125,VALID,0.238281,
2009-03-30, 02:46:04,VALID,999.381,VALID,0,VALID,92.1048,VALID,0,VALID,22.8835,VALID,125,VALID,0,
2009-03-30, 02:47:04,VALID,999.4,VALID,0,VALID,92.0361,VALID,0,VALID,22.8445,VALID,125,VALID,0,
2009-03-30, 02:48:04,VALID,999.418,VALID,0,VALID,92.0971,VALID,0,VALID,22.7647,VALID,125,VALID,0,
2009-03-30, 02:49:04,VALID,999.409,VALID,0,VALID,92.2726,VALID,0,VALID,22.7452,VALID,125,VALID,0,
2009-03-30, 02:50:04,VALID,999.416,VALID,0,VALID,92.4328,VALID,0,VALID,22.7062,VALID,125,VALID,0.108203,
2009-03-30, 02:51:04,VALID,999.419,VALID,0,VALID,92.5549,VALID,0,VALID,22.7079,VALID,124,VALID,0.451953,
2009-03-30, 02:52:04,VALID,999.393,VALID,0,VALID,92.7685,VALID,0,VALID,22.7079,VALID,112,VALID,0.742969,
2009-03-30, 02:53:04,VALID,999.399,VALID,0,VALID,92.8754,VALID,0,VALID,22.7079,VALID,112,VALID,0.74375,
2009-03-30, 02:54:04,VALID,999.363,VALID,0,VALID,92.6846,VALID,0,VALID,22.6867,VALID,113,VALID,0.920313,
2009-03-30, 02:55:04,VALID,999.349,VALID,0,VALID,92.5091,VALID,0,VALID,22.7274,VALID,113,VALID,0.788672,
2009-03-30, 02:56:04,VALID,999.366,VALID,0,VALID,92.4328,VALID,0,VALID,22.7469,VALID,116,VALID,0.741406,
2009-03-30, 02:57:04,VALID,999.339,VALID,0,VALID,92.4634,VALID,0,VALID,22.7469,VALID,116,VALID,0.569922,
2009-03-30, 02:58:04,VALID,999.344,VALID,0,VALID,92.4023,VALID,0,VALID,22.786,VALID,116,VALID,0.533594,
2009-03-30, 02:59:04,VALID,999.339,VALID,0,VALID,92.3566,VALID,0,VALID,22.786,VALID,116,VALID,0.547656,
2009-03-30, 03:00:04,VALID,999.317,VALID,0,VALID,92.3718,VALID,0,VALID,22.8055,VALID,116,VALID,0.432031,
2009-03-30, 03:01:04,VALID,999.329,VALID,0,VALID,92.2345,VALID,0,VALID,22.825,VALID,116,VALID,0.334375,
2009-03-30, 03:02:04,VALID,999.324,VALID,0,VALID,92.1658,VALID,0,VALID,22.8445,VALID,116,VALID,0.522266,
2009-03-30, 03:03:04,VALID,999.307,VALID,0,VALID,92.2116,VALID,0,VALID,22.825,VALID,116,VALID,0.434375,
2009-03-30, 03:04:04,VALID,999.318,VALID,0,VALID,92.1887,VALID,0,VALID,22.8445,VALID,116,VALID,0.491797,
2009-03-30, 03:05:04,VALID,999.285,VALID,0,VALID,92.1124,VALID,0,VALID,22.8232,VALID,122,VALID,0.604297,
2009-03-30, 03:06:04,VALID,999.281,VALID,0,VALID,92.1811,VALID,0,VALID,22.8445,VALID,123,VALID,0.594922,
2009-03-30, 03:07:04,VALID,999.261,VALID,0,VALID,92.1658,VALID,0,VALID,22.8445,VALID,127,VALID,0.419922,
2009-03-30, 03:08:04,VALID,999.284,VALID,0,VALID,92.0971,VALID,0,VALID,22.8445,VALID,133,VALID,0.45,
2009-03-30, 03:09:04,VALID,999.252,VALID,0,VALID,92.2726,VALID,0,VALID,22.8445,VALID,146,VALID,0.4875,
2009-03-30, 03:10:04,VALID,999.237,VALID,0,VALID,92.2574,VALID,0,VALID,22.8445,VALID,146,VALID,0.45625,
2009-03-30, 03:11:04,VALID,999.266,VALID,0,VALID,91.9522,VALID,0,VALID,22.825,VALID,156,VALID,0.760547,
2009-03-30, 03:12:04,VALID,999.267,VALID,0,VALID,91.2274,VALID,0,VALID,22.7647,VALID,152,VALID,0.999219,
2009-03-30, 03:13:04,VALID,999.244,VALID,0,VALID,91.0824,VALID,0,VALID,22.8055,VALID,156,VALID,0.969922,
2009-03-30, 03:14:04,VALID,999.258,VALID,0,VALID,90.9069,VALID,0,VALID,22.8055,VALID,152,VALID,1.08047,
2009-03-30, 03:15:04,VALID,999.222,VALID,0,VALID,90.6094,VALID,0,VALID,22.8232,VALID,153,VALID,0.917578,
2009-03-30, 03:16:04,VALID,999.206,VALID,0,VALID,90.4568,VALID,0,VALID,22.864,VALID,152,VALID,0.850781,
2009-03-30, 03:17:04,VALID,999.198,VALID,0,VALID,90.3652,VALID,0,VALID,22.8835,VALID,148,VALID,0.839063,
2009-03-30, 03:18:04,VALID,999.193,VALID,0,VALID,90.1058,VALID,0,VALID,22.903,VALID,148,VALID,0.920703,
2009-03-30, 03:19:04,VALID,999.207,VALID,0,VALID,90.0066,VALID,0,VALID,22.9013,VALID,147,VALID,1.05586,
2009-03-30, 03:20:04,VALID,999.203,VALID,0,VALID,89.8617,VALID,0,VALID,22.9225,VALID,158,VALID,0.966797,
2009-03-30, 03:21:04,VALID,999.185,VALID,0,VALID,89.6404,VALID,0,VALID,22.9615,VALID,165,VALID,1.26953,
2009-03-30, 03:22:04,VALID,999.182,VALID,0,VALID,89.4573,VALID,0,VALID,22.9811,VALID,167,VALID,1.35312,
2009-03-30, 03:23:04,VALID,999.178,VALID,0,VALID,89.2666,VALID,0,VALID,23.0006,VALID,155,VALID,1.0918,
2009-03-30, 03:24:04,VALID,999.181,VALID,0,VALID,89.1903,VALID,0,VALID,23.0201,VALID,163,VALID,1.1707,
2009-03-30, 03:25:04,VALID,999.159,VALID,0,VALID,88.8927,VALID,0,VALID,23.0573,VALID,176,VALID,0.904688,
2009-03-30, 03:26:04,VALID,999.185,VALID,0,VALID,88.618,VALID,0,VALID,23.0573,VALID,170,VALID,1.16875,
2009-03-30, 03:27:04,VALID,999.144,VALID,0,VALID,88.618,VALID,0,VALID,23.0786,VALID,163,VALID,1.09258,
2009-03-30, 03:28:04,VALID,999.152,VALID,0,VALID,88.6714,VALID,0,VALID,23.0591,VALID,153,VALID,1.11172,
2009-03-30, 03:29:04,VALID,999.147,VALID,0,VALID,88.5341,VALID,0,VALID,23.0591,VALID,164,VALID,0.969922,
2009-03-30, 03:30:04,VALID,999.145,VALID,0,VALID,88.4578,VALID,0,VALID,23.0396,VALID,167,VALID,0.880859,
2009-03-30, 03:31:04,VALID,999.128,VALID,0,VALID,88.5036,VALID,0,VALID,23.0183,VALID,156,VALID,0.596094,
2009-03-30, 03:32:04,VALID,999.141,VALID,0,VALID,88.4807,VALID,0,VALID,22.9988,VALID,156,VALID,0.554297,
2009-03-30, 03:33:04,VALID,999.164,VALID,0,VALID,88.6562,VALID,0,VALID,23.0006,VALID,148,VALID,0.557031,
2009-03-30, 03:34:04,VALID,999.176,VALID,0,VALID,88.6867,VALID,0,VALID,22.9811,VALID,151,VALID,0.416016,
2009-03-30, 03:35:04,VALID,999.202,VALID,0,VALID,88.7325,VALID,0,VALID,22.9403,VALID,159,VALID,0.514453,
2009-03-30, 03:36:04,VALID,999.211,VALID,0,VALID,88.7477,VALID,0,VALID,22.942,VALID,159,VALID,0.535156,
2009-03-30, 03:37:04,VALID,999.238,VALID,0,VALID,88.6562,VALID,0,VALID,22.942,VALID,162,VALID,0.409766,
2009-03-30, 03:38:04,VALID,999.267,VALID,0,VALID,88.5417,VALID,0,VALID,22.9615,VALID,177,VALID,0.724219,
2009-03-30, 03:39:04,VALID,999.295,VALID,0,VALID,88.351,VALID,0,VALID,22.9811,VALID,184,VALID,0.750391,
2009-03-30, 03:40:04,VALID,999.302,VALID,0,VALID,88.2289,VALID,0,VALID,22.9811,VALID,184,VALID,0.321484,
2009-03-30, 03:41:04,VALID,999.256,VALID,0,VALID,88.145,VALID,0,VALID,22.9615,VALID,169,VALID,0.531641,
2009-03-30, 03:42:04,VALID,999.291,VALID,0,VALID,88.0153,VALID,0,VALID,22.9615,VALID,153,VALID,0.610547,
2009-03-30, 03:43:04,VALID,999.282,VALID,0,VALID,87.8856,VALID,0,VALID,22.9793,VALID,143,VALID,0.766797,
2009-03-30, 03:44:04,VALID,999.25,VALID,0,VALID,87.7101,VALID,0,VALID,23.0201,VALID,147,VALID,0.944922,
2009-03-30, 03:45:04,VALID,999.262,VALID,0,VALID,87.2981,VALID,0,VALID,23.0591,VALID,146,VALID,0.822266,